Regional Weather Roundup
Issued by NWS

Home | Current Version | Previous Version | Graphics & Text | Print | Product List | Glossary On
Versions: 1 2 3 4 5 6 7 8 9 10 11 12 13 14 15 16 17 18 19 20 21 22 23 24 25 26 27 28 29 30 31 32 33 34 35 36 37 38 39 40 41 42 43 44 45 46 47 48 49 50
000
ASUS43 KTOP 220559
RWRKS

WEATHER ROUNDUP FOR KANSAS
NATIONAL WEATHER SERVICE GOODLAND KS
1200 AM CST WED NOV 22 2017

NOTE:  "FAIR" INDICATES FEW OR NO CLOUDS BELOW 12,000 FEET WITH NO
SIGNIFICANT WEATHER AND/OR OBSTRUCTIONS TO VISIBILITY.

KSZ001>006-013>018-027>032-041>047-220700-
NORTHWEST KANSAS

CITY           SKY/WX    TMP DP  RH WIND       PRES   REMARKS
GOODLAND       CLOUDY    33  25  72 S12       30.31F WCI  24
6HR MIN TEMP:  27; 6HR MAX TEMP:  35;

HAYS           CLOUDY    25  13  60 CALM      30.41F
HILL CITY      CLOUDY    20  13  74 CALM      30.41S
6HR MIN TEMP:  20; 6HR MAX TEMP:  36;

RUSSELL        CLOUDY    23  12  62 E8        30.41R
6HR MIN TEMP:  20; 6HR MAX TEMP:  36;

$$

KSZ061>065-074>080-084>089-220700-
SOUTHWEST KANSAS

CITY           SKY/WX    TMP DP  RH WIND       PRES   REMARKS
DODGE CITY     CLOUDY    24  15  68 CALM      30.39S
6HR MIN TEMP:  22; 6HR MAX TEMP:  40;

GARDEN CITY    CLEAR     27  18  69 CALM      30.38S
6HR MIN TEMP:  24; 6HR MAX TEMP:  40;

GREAT BEND     CLOUDY    19  11  70 W5        30.43R
$$

KSZ066>073-081>083-090>101-220700-
SOUTHEAST KANSAS

CITY           SKY/WX    TMP DP  RH WIND       PRES   REMARKS
CHANUTE        CLOUDY    29  16  58 N9        30.39R
6HR MIN TEMP:  29; 6HR MAX TEMP:  43;

COFFEYVILLE    CLEAR     30  18  60 N8        30.39R
6HR MIN TEMP:  30; 6HR MAX TEMP:  47;

HUTCHINSON     CLOUDY    26  13  57 N7        30.41F
6HR MIN TEMP:  24; 6HR MAX TEMP:  40;

MEDICINE LODGE   N/A     26  12  55 CALM      30.42R
NEWTON         CLOUDY    22  13  68 N10       30.41S WCI  11
PARSONS        CLEAR     29  18  63 N8        30.39R
6HR MIN TEMP:  29; 6HR MAX TEMP:  45;

WICHITA INTL   CLOUDY    30  15  53 N8        30.41R
6HR MIN TEMP:  30; 6HR MAX TEMP:  43;

WICHITA JABRA  CLOUDY    23  15  71 N7        30.41R
6HR MIN TEMP:  22; 6HR MAX TEMP:  40;

WICHITA MCCONL CLOUDY    28  13  54 N14       30.40R WCI  17
WINFIELD       CLOUDY    26  14  60 NW3       30.42R
6HR MIN TEMP:  25; 6HR MAX TEMP:  45;

$$

KSZ007>012-019>026-033>040-048>060-102>105-220700-
NORTHEAST KANSAS

CITY           SKY/WX    TMP DP  RH WIND       PRES   REMARKS
CONCORDIA      CLOUDY    22  12  65 N3        30.42S
6HR MIN TEMP:  21; 6HR MAX TEMP:  32;

EMPORIA        CLOUDY    23  13  65 N7        30.41R
6HR MIN TEMP:  22; 6HR MAX TEMP:  37;

LAWRENCE       CLOUDY    23  15  71 NW6       30.42S
6HR MIN TEMP:  23; 6HR MAX TEMP:  35;

MANHATTAN      CLOUDY    22  13  68 NW3       30.44S
6HR MIN TEMP:  22; 6HR MAX TEMP:  35;

OLATHE IND     CLOUDY    24  16  71 NW8       30.40R
6HR MIN TEMP:  23; 6HR MAX TEMP:  35;

OLATHE EXE     CLOUDY    27  15  61 N7        30.39R
6HR MIN TEMP:  27; 6HR MAX TEMP:  36;

SALINA         CLOUDY    26  13  57 N3        30.44S
6HR MIN TEMP:  24; 6HR MAX TEMP:  38;

TOPEKA BILLARD CLOUDY    25  15  66 NW7       30.43R
6HR MIN TEMP:  25; 6HR MAX TEMP:  34;

TOPEKA FORBES  CLOUDY    26  14  60 NW8       30.41R
6HR MIN TEMP:  26; 6HR MAX TEMP:  36;

$$




USA.gov is the U.S. government's official web portal to all federal, state and local government web resources and services.